Location: Sternwarte ZA, Rosenfeld-Brittheim
(48.2889°N, 8.6789°E)
Time: 04:57:36
(UTC+02:00)

X-37B - Pass Details

Date: 30 September 2021
Orbit: 385 x 389 km, 45.0° (Epoch: 17 October)

Event Time Altitude Azimuth Distance (km) Brightness Sun altitude
Exits shadow 05:39:22 43° 187° (S) 555 1.1 -17.9°
Maximum altitude 05:39:23 43° 187° (S) 555 1.1 -17.9°
Drops below altitude 10° 05:42:25 10° 114° (ESE) 1,413 4.1 -17.4°
Sets 05:44:32 0° 107° (ESE) 2,267 5.5 -17.1°
